Total_Precipitation_Accumulation
0.85 0.80 0.72 0.70 0.65 0.60 0.55 0.52 0.44 0.36 0.31 0.28 0.26 0.24 0.20 0.17 0.16 0.15 0.15 0.14 0.15 0.16 0.17 0.17 0.18 0.18 0.18 0.16 0.16 0.15 0.14 0.17 0.21 0.21 0.18 0.17 0.18 0.18 0.17 0.16 0.15 0.15 0.13
0.48 0.45 0.41 0.40 0.39 0.38 0.36 0.34 0.32 0.31 0.29 0.27 0.25 0.23 0.22 0.21 0.20 0.19 0.19 0.19 0.19 0.19 0.19 0.18 0.18 0.17 0.18 0.17 0.17 0.16 0.16 0.17 0.19 0.19 0.16 0.14 0.13 0.13 0.14 0.16 0.13 0.11 0.12
0.30 0.30 0.30 0.30 0.31 0.32 0.33 0.34 0.33 0.32 0.30 0.28 0.26 0.26 0.25 0.24 0.23 0.22 0.21 0.20 0.18 0.16 0.15 0.14 0.13 0.12 0.12 0.11 0.10 0.09 0.09 0.09 0.12 0.15 0.13 0.11 0.10 0.11 0.15 0.16 0.15 0.18 0.13
0.23 0.23 0.23 0.24 0.25 0.27 0.28 0.28 0.28 0.29 0.30 0.31 0.30 0.28 0.26 0.23 0.19 0.16 0.13 0.11 0.09 0.08 0.07 0.06 0.05 0.05 0.07 0.08 0.08 0.08 0.09 0.11 0.13 0.16 0.16 0.14 0.13 0.12 0.20 0.21 0.17 0.17 0.15
0.26 0.27 0.27 0.27 0.27 0.28 0.30 0.31 0.31 0.29 0.27 0.23 0.20 0.16 0.13 0.09 0.07 0.05 0.04 0.03 0.03 0.02 0.02 0.02 0.02 0.03 0.05 0.06 0.06 0.08 0.13 0.16 0.18 0.20 0.19 0.15 0.13 0.17 0.22 0.22 0.19 0.14 0.09
0.39 0.40 0.40 0.39 0.38 0.36 0.33 0.29 0.25 0.21 0.16 0.12 0.09 0.06 0.05 0.03 0.02 0.01 0.01 0.01 0.01 0.02 0.02 0.02 0.02 0.02 0.02 0.02 0.05 0.10 0.16 0.19 0.20 0.21 0.20 0.21 0.19 0.22 0.25 0.23 0.23 0.22 0.18
0.49 0.50 0.49 0.45 0.39 0.31 0.22 0.16 0.13 0.10 0.08 0.06 0.04 0.03 0.03 0.01 0.00 0.00 0.00 0.00 0.02 0.03 0.04 0.04 0.03 0.02 0.03 0.05 0.06 0.07 0.08 0.09 0.15 0.23 0.26 0.26 0.27 0.29 0.32 0.29 0.30 0.32 0.26
0.51 0.49 0.43 0.35 0.27 0.18 0.12 0.09 0.08 0.07 0.06 0.04 0.03 0.03 0.04 0.02 0.00 0.00 0.00 0.00 0.02 0.03 0.04 0.04 0.05 0.05 0.06 0.06 0.04 0.05 0.08 0.13 0.13 0.16 0.24 0.25 0.25 0.26 0.30 0.31 0.32 0.33 0.27
0.43 0.34 0.25 0.17 0.12 0.08 0.07 0.07 0.06 0.05 0.04 0.03 0.03 0.04 0.07 0.05 0.01 0.00 0.00 0.01 0.03 0.03 0.04 0.03 0.04 0.07 0.07 0.07 0.05 0.08 0.13 0.18 0.12 0.10 0.16 0.22 0.25 0.28 0.29 0.31 0.41 0.47 0.38
0.20 0.13 0.10 0.07 0.05 0.05 0.05 0.05 0.04 0.04 0.04 0.04 0.04 0.05 0.07 0.08 0.02 0.00 0.00 0.01 0.02 0.02 0.05 0.08 0.06 0.06 0.05 0.05 0.04 0.11 0.19 0.21 0.20 0.24 0.31 0.35 0.37 0.45 0.44 0.42 0.49 0.53 0.48
0.07 0.05 0.04 0.03 0.02 0.02 0.03 0.03 0.03 0.04 0.06 0.06 0.07 0.07 0.08 0.04 0.01 0.00 0.00 0.00 0.01 0.02 0.08 0.15 0.16 0.08 0.05 0.05 0.06 0.11 0.18 0.16 0.22 0.36 0.43 0.43 0.44 0.48 0.48 0.44 0.47 0.51 0.55
0.03 0.03 0.03 0.02 0.01 0.01 0.03 0.04 0.04 0.06 0.08 0.09 0.09 0.09 0.09 0.07 0.03 0.01 0.00 0.00 0.00 0.03 0.13 0.18 0.17 0.09 0.07 0.09 0.11 0.14 0.16 0.23 0.35 0.47 0.48 0.46 0.43 0.42 0.42 0.39 0.42 0.48 0.54
0.06 0.05 0.03 0.03 0.02 0.02 0.04 0.05 0.06 0.08 0.08 0.06 0.07 0.08 0.09 0.09 0.06 0.00 0.00 0.00 0.01 0.04 0.11 0.11 0.12 0.13 0.15 0.25 0.23 0.21 0.27 0.40 0.48 0.50 0.50 0.48 0.40 0.35 0.32 0.31 0.34 0.43 0.51
0.12 0.08 0.05 0.05 0.05 0.05 0.06 0.05 0.06 0.08 0.06 0.06 0.08 0.08 0.09 0.09 0.05 0.02 0.02 0.04 0.05 0.08 0.10 0.14 0.22 0.28 0.31 0.38 0.42 0.46 0.48 0.48 0.44 0.48 0.47 0.40 0.30 0.26 0.26 0.28 0.33 0.37 0.44
0.14 0.09 0.05 0.04 0.06 0.07 0.09 0.06 0.04 0.05 0.01 0.02 0.04 0.04 0.05 0.05 0.03 0.02 0.02 0.02 0.03 0.04 0.07 0.17 0.33 0.39 0.45 0.48 0.51 0.55 0.57 0.51 0.45 0.43 0.42 0.38 0.31 0.29 0.26 0.25 0.28 0.31 0.36
0.11 0.07 0.04 0.03 0.05 0.06 0.09 0.10 0.04 0.01 0.00 0.00 0.00 0.01 0.02 0.02 0.02 0.02 0.02 0.02 0.04 0.07 0.13 0.27 0.34 0.37 0.42 0.42 0.42 0.45 0.50 0.50 0.43 0.38 0.38 0.35 0.30 0.29 0.29 0.28 0.28 0.31 0.36
0.06 0.03 0.02 0.03 0.04 0.06 0.08 0.14 0.16 0.07 0.01 0.01 0.01 0.01 0.02 0.02 0.02 0.02 0.03 0.05 0.08 0.15 0.24 0.32 0.34 0.37 0.40 0.37 0.36 0.41 0.45 0.41 0.35 0.32 0.31 0.28 0.26 0.24 0.25 0.27 0.26 0.26 0.27
0.03 0.01 0.01 0.03 0.03 0.04 0.05 0.07 0.10 0.14 0.14 0.09 0.04 0.02 0.02 0.03 0.04 0.05 0.08 0.13 0.21 0.26 0.31 0.31 0.32 0.34 0.37 0.37 0.33 0.32 0.32 0.27 0.24 0.24 0.24 0.22 0.21 0.22 0.22 0.23 0.20 0.17 0.20
0.01 0.02 0.02 0.01 0.01 0.02 0.03 0.03 0.03 0.06 0.11 0.14 0.11 0.06 0.05 0.09 0.11 0.13 0.16 0.20 0.26 0.26 0.26 0.26 0.28 0.28 0.29 0.32 0.28 0.24 0.21 0.18 0.16 0.16 0.17 0.18 0.18 0.17 0.17 0.16 0.13 0.09 0.13
0.01 0.01 0.01 0.00 0.00 0.01 0.01 0.01 0.01 0.03 0.06 0.09 0.09 0.06 0.07 0.15 0.22 0.22 0.21 0.20 0.20 0.20 0.22 0.24 0.22 0.19 0.21 0.21 0.17 0.16 0.16 0.14 0.12 0.11 0.12 0.12 0.12 0.13 0.12 0.10 0.09 0.09 0.09
0.01 0.01 0.00 0.00 0.00 0.00 0.00 0.00 0.01 0.01 0.03 0.04 0.04 0.04 0.08 0.15 0.23 0.24 0.22 0.18 0.16 0.17 0.20 0.20 0.18 0.16 0.15 0.14 0.12 0.10 0.09 0.09 0.09 0.11 0.10 0.08 0.07 0.07 0.06 0.04 0.04 0.04 0.04
0.00 0.00 0.00 0.00 0.00 0.00 0.00 0.00 0.01 0.01 0.02 0.03 0.04 0.05 0.09 0.15 0.21 0.24 0.24 0.20 0.16 0.16 0.17 0.16 0.14 0.13 0.11 0.11 0.10 0.08 0.06 0.06 0.07 0.11 0.10 0.07 0.05 0.04 0.02 0.02 0.02 0.02 0.02
0.00 0.00 0.00 0.00 0.00 0.00 0.00 0.00 0.00 0.01 0.01 0.02 0.03 0.05 0.08 0.15 0.20 0.22 0.21 0.16 0.12 0.11 0.12 0.12 0.11 0.09 0.07 0.06 0.05 0.04 0.03 0.03 0.05 0.08 0.09 0.05 0.03 0.03 0.02 0.02 0.02 0.02 0.01
0.00 0.00 0.00 0.00 0.00 0.00 0.00 0.00 0.00 0.00 0.01 0.02 0.03 0.04 0.05 0.10 0.14 0.16 0.17 0.14 0.10 0.09 0.08 0.07 0.07 0.05 0.04 0.03 0.02 0.01 0.01 0.01 0.02 0.03 0.05 0.04 0.03 0.02 0.02 0.02 0.02 0.02 0.02
0.00 0.00 0.00 0.00 0.00 0.00 0.00 0.00 0.00 0.00 0.01 0.01 0.02 0.03 0.03 0.04 0.05 0.07 0.09 0.10 0.10 0.08 0.06 0.04 0.03 0.02 0.01 0.01 0.01 0.00 0.00 0.01 0.00 0.01 0.02 0.02 0.01 0.01 0.01 0.01 0.01 0.02 0.03
0.00 0.00 0.00 0.00 0.00 0.00 0.00 0.00 0.01 0.01 0.01 0.01 0.02 0.03 0.02 0.02 0.02 0.03 0.04 0.06 0.07 0.06 0.06 0.04 0.02 0.01 0.00 0.00 0.00 0.01 0.01 0.01 0.01 0.01 0.01 0.02 0.01 0.01 0.01 0.01 0.01 0.02 0.02